KO6LQJ Weather Reports


time (UTC)temp
C
wind
direction
speed
KPH
gust
KPH
rain 1hr
cm
rain 24hr
cm
rain mn
cm
humidity
%
barometer
mb
20260507023551 19 160 0.0 0.0 0.00 0.00 0.00 55 1018.0
20260507023049 19 148 1.6 3.2 0.00 0.00 0.00 55 1017.9
20260507022545 19 157 0.0 0.0 0.00 0.00 0.00 54 1017.8
20260507022040 19 154 1.6 3.2 0.00 0.00 0.00 53 1017.9
20260507021537 20 151 1.6 1.6 0.00 0.00 0.00 53 1017.8
20260507021033 20 182 0.0 0.0 0.00 0.00 0.00 53 1017.8
20260507020531 20 188 0.0 0.0 0.00 0.00 0.00 52 1017.7
20260507020027 20 173 0.0 0.0 0.00 0.00 0.00 52 1017.5
20260507015526 20 188 0.0 0.0 0.00 0.00 0.00 52 1017.6
20260507015023 21 227 0.0 0.0 0.00 0.00 0.00 52 1017.7
20260507014519 21 205 0.0 0.0 0.00 0.00 0.00 52 1017.5
20260507014015 21 187 0.0 0.0 0.00 0.00 0.00 51 1017.5
20260507013512 21 179 0.0 0.0 0.00 0.00 0.00 50 1017.3
20260507013009 22 181 0.0 0.0 0.00 0.00 0.00 49 1017.5
20260507012506 22 181 0.0 0.0 0.00 0.00 0.00 48 1017.3
20260507012002 22 183 0.0 0.0 0.00 0.00 0.00 47 1017.6
20260507011500 22 182 0.0 0.0 0.00 0.00 0.00 47 1017.4
20260507010955 23 181 0.0 0.0 0.00 0.00 0.00 46 1017.4
20260507010450 23 196 0.0 0.0 0.00 0.00 0.00 47 1017.1
20260507005948 23 184 0.0 0.0 0.00 0.00 0.00 47 1017.3
20260507005445 23 165 0.0 0.0 0.00 0.00 0.00 47 1017.0
20260507004941 23 179 0.0 0.0 0.00 0.00 0.00 46 1017.1
20260507004438 23 177 0.0 0.0 0.00 0.00 0.00 46 1017.3
20260507003935 22 160 0.0 0.0 0.00 0.00 0.00 47 1017.4
20260507003430 23 184 0.0 0.0 0.00 0.00 0.00 46 1017.3
20260507002925 23 183 0.0 0.0 0.00 0.00 0.00 46 1017.2
20260507002422 23 188 0.0 0.0 0.00 0.00 0.00 45 1017.2
20260507001920 23 188 0.0 0.0 0.00 0.00 0.00 45 1017.4
20260507001416 24 182 0.0 1.6 0.00 0.00 0.00 44 1017.1
20260507000914 23 215 0.0 0.0 0.00 0.00 0.00 45 1017.0
20260507000409 23 180 0.0 0.0 0.00 0.00 0.00 46 1017.0
20260506235905 23 182 0.0 0.0 0.00 0.00 0.00 45 1017.2
20260506235402 24 168 0.0 0.0 0.00 0.00 0.00 45 1017.0
20260506234857 25 180 0.0 0.0 0.00 0.00 0.00 44 1017.2
20260506234355 25 160 0.0 0.0 0.00 0.00 0.00 44 1017.1
20260506233853 25 188 0.0 1.6 0.00 0.00 0.00 44 1017.1
20260506233349 25 234 0.0 0.0 0.00 0.00 0.00 43 1017.1
20260506232846 25 189 0.0 0.0 0.00 0.00 0.00 43 1017.1
20260506232342 25 206 0.0 0.0 0.00 0.00 0.00 43 1017.1
20260506231838 24 179 0.0 0.0 0.00 0.00 0.00 44 1017.2
20260506231336 24 178 0.0 1.6 0.00 0.00 0.00 44 1017.3
20260506230833 23 176 1.6 3.2 0.00 0.00 0.00 46 1017.4
20260506230330 25 150 3.2 3.2 0.00 0.00 0.00 43 1017.1
20260506225826 25 184 0.0 1.6 0.00 0.00 0.00 43 1017.3
20260506225324 25 204 0.0 1.6 0.00 0.00 0.00 44 1017.2
20260506224820 25 219 0.0 0.0 0.00 0.00 0.00 44 1017.4
20260506224318 25 180 0.0 0.0 0.00 0.00 0.00 44 1017.6
20260506223814 25 193 0.0 0.0 0.00 0.00 0.00 43 1017.4
20260506223309 25 196 0.0 0.0 0.00 0.00 0.00 43 1017.4
20260506222807 25 159 1.6 3.2 0.00 0.00 0.00 42 1017.3
20260506222305 25 119 0.0 0.0 0.00 0.00 0.00 42 1017.5
20260506221800 26 204 0.0 0.0 0.00 0.00 0.00 43 1017.6
20260506221258 25 171 0.0 0.0 0.00 0.00 0.00 42 1017.6
20260506220756 25 195 0.0 0.0 0.00 0.00 0.00 43 1017.7
20260506220255 26 208 0.0 0.0 0.00 0.00 0.00 43 1017.8
20260506215753 26 165 0.0 1.6 0.00 0.00 0.00 42 1018.1
20260506215248 25 193 0.0 0.0 0.00 0.00 0.00 43 1017.9
20260506214744 25 184 0.0 0.0 0.00 0.00 0.00 43 1018.1
20260506214242 25 209 0.0 1.6 0.00 0.00 0.00 44 1018.0
20260506213740 25 184 0.0 1.6 0.00 0.00 0.00 45 1018.2
20260506213237 25 244 0.0 0.0 0.00 0.00 0.00 44 1018.3
20260506212734 25 126 3.2 4.8 0.00 0.00 0.00 43 1018.2
20260506212230 25 221 0.0 0.0 0.00 0.00 0.00 44 1018.2
20260506211725 25 172 0.0 0.0 0.00 0.00 0.00 44 1018.4
20260506211222 25 178 0.0 0.0 0.00 0.00 0.00 44 1018.5
20260506210719 25 161 0.0 1.6 0.00 0.00 0.00 44 1018.5
20260506210216 25 221 0.0 0.0 0.00 0.00 0.00 44 1018.5
20260506205713 25 189 0.0 1.6 0.00 0.00 0.00 43 1018.6
20260506205208 25 152 1.6 1.6 0.00 0.00 0.00 43 1018.7
20260506204705 26 174 0.0 0.0 0.00 0.00 0.00 42 1018.4
20260506204202 25 182 0.0 0.0 0.00 0.00 0.00 42 1018.4
20260506203700 25 165 0.0 0.0 0.00 0.00 0.00 43 1018.5
20260506203157 25 195 0.0 1.6 0.00 0.00 0.00 43 1018.6
20260506202655 25 244 0.0 0.0 0.00 0.00 0.00 44 1018.7
20260506202151 25 191 4.8 8.0 0.00 0.00 0.00 42 1018.8
20260506201648 23 232 0.0 0.0 0.00 0.00 0.00 44 1018.6
20260506201144 25 178 4.8 8.0 0.00 0.00 0.00 43 1018.9
20260506200641 23 136 3.2 3.2 0.00 0.00 0.00 45 1018.9
20260506200138 23 148 1.6 1.6 0.00 0.00 0.00 45 1019.0
20260506195635 23 149 6.4 8.0 0.00 0.00 0.00 44 1019.2
20260506195131 24 139 1.6 1.6 0.00 0.00 0.00 44 1019.2
20260506194629 25 78 0.0 0.0 0.00 0.00 0.00 43 1019.2
20260506194125 23 96 3.2 3.2 0.00 0.00 0.00 45 1019.1
20260506193623 23 119 0.0 0.0 0.00 0.00 0.00 46 1019.3
20260506193120 24 192 0.0 1.6 0.00 0.00 0.00 44 1019.2
20260506192616 23 192 1.6 3.2 0.00 0.00 0.00 46 1019.3
20260506192112 22 121 1.6 1.6 0.00 0.00 0.00 46 1019.5
20260506191609 22 31 6.4 9.7 0.00 0.00 0.00 46 1019.5
20260506191105 22 160 0.0 0.0 0.00 0.00 0.00 46 1019.6
20260506190603 23 140 3.2 3.2 0.00 0.00 0.00 45 1019.8
20260506190059 22 175 0.0 0.0 0.00 0.00 0.00 47 1019.6
20260506185557 21 99 0.0 0.0 0.00 0.00 0.00 49 1019.6
20260506185053 22 154 0.0 1.6 0.00 0.00 0.00 47 1019.6
20260506184550 22 85 0.0 0.0 0.00 0.00 0.00 47 1019.9
20260506184048 22 152 4.8 4.8 0.00 0.00 0.00 47 1020.0
20260506183543 22 196 0.0 0.0 0.00 0.00 0.00 48 1019.9
20260506183040 22 200 0.0 0.0 0.00 0.00 0.00 45 1020.0
20260506182538 23 176 0.0 0.0 0.00 0.00 0.00 45 1019.9
20260506182035 21 144 1.6 1.6 0.00 0.00 0.00 48 1020.0
20260506181533 21 229 0.0 0.0 0.00 0.00 0.00 48 1020.2
20260506181029 22 146 1.6 3.2 0.00 0.00 0.00 47 1020.4
20260506180526 22 136 4.8 4.8 0.00 0.00 0.00 47 1020.4
20260506180022 22 182 0.0 0.0 0.00 0.00 0.00 47 1020.2
20260506175519 21 188 0.0 0.0 0.00 0.00 0.00 48 1020.3
20260506175015 21 184 0.0 0.0 0.00 0.00 0.00 49 1020.1
20260506174514 21 196 0.0 0.0 0.00 0.00 0.00 49 1020.3
20260506174010 22 190 0.0 0.0 0.00 0.00 0.00 48 1020.4
20260506173508 22 168 0.0 0.0 0.00 0.00 0.00 48 1020.2
20260506173004 22 159 0.0 0.0 0.00 0.00 0.00 47 1020.2
20260506172502 20 152 0.0 0.0 0.00 0.00 0.00 50 1020.2
20260506171957 21 193 0.0 0.0 0.00 0.00 0.00 49 1020.2
20260506171455 21 179 0.0 0.0 0.00 0.00 0.00 49 1020.3
20260506170953 21 175 0.0 0.0 0.00 0.00 0.00 48 1020.2
20260506170449 21 168 0.0 0.0 0.00 0.00 0.00 49 1020.3
20260506165948 20 177 0.0 0.0 0.00 0.00 0.00 50 1020.4
20260506165446 20 152 1.6 3.2 0.00 0.00 0.00 52 1020.3
20260506164942 20 155 0.0 1.6 0.00 0.00 0.00 52 1020.3
20260506164439 20 175 0.0 0.0 0.00 0.00 0.00 52 1020.3
20260506163937 20 152 1.6 1.6 0.00 0.00 0.00 51 1020.2
20260506163431 20 164 0.0 0.0 0.00 0.00 0.00 53 1020.1
20260506162926 19 150 0.0 0.0 0.00 0.00 0.00 54 1020.2
20260506162424 18 158 0.0 0.0 0.00 0.00 0.00 55 1020.2
20260506161922 19 138 1.6 1.6 0.00 0.00 0.00 54 1020.2
20260506161420 19 115 0.0 0.0 0.00 0.00 0.00 56 1020.2
20260506160917 19 106 1.6 1.6 0.00 0.00 0.00 54 1020.6
20260506160414 18 158 0.0 0.0 0.00 0.00 0.00 56 1020.3
20260506155912 18 147 0.0 1.6 0.00 0.00 0.00 59 1020.3
20260506155409 18 95 0.0 0.0 0.00 0.00 0.00 57 1020.5
20260506153525 18 97 0.0 0.0 0.00 0.00 0.00 58 1020.4
20260506153023 18 92 0.0 0.0 0.00 0.00 0.00 57 1020.3
20260506152519 18 95 0.0 0.0 0.00 0.00 0.00 57 1020.4
20260506152018 17 92 0.0 0.0 0.00 0.00 0.00 59 1020.1
20260506151514 17 95 0.0 0.0 0.00 0.00 0.00 58 1020.3
20260506151012 17 98 0.0 0.0 0.00 0.00 0.00 59 1020.4
20260506150508 17 96 0.0 0.0 0.00 0.00 0.00 59 1020.3
20260506150005 17 96 0.0 0.0 0.00 0.00 0.00 59 1020.4
20260506145501 17 96 0.0 0.0 0.00 0.00 0.00 58 1020.4
20260506144959 17 95 0.0 0.0 0.00 0.00 0.00 59 1020.5
20260506144456 16 96 0.0 0.0 0.00 0.00 0.00 59 1020.4
20260506143954 16 96 0.0 0.0 0.00 0.00 0.00 62 1020.5
20260506143451 15 97 0.0 0.0 0.00 0.00 0.00 62 1020.5
20260506142949 15 97 0.0 0.0 0.00 0.00 0.00 63 1020.5
20260506142446 15 96 0.0 0.0 0.00 0.00 0.00 63 1020.4
20260506141944 15 96 0.0 0.0 0.00 0.00 0.00 65 1020.3
20260506141442 15 98 0.0 0.0 0.00 0.00 0.00 64 1020.5
20260506140941 13 98 0.0 0.0 0.00 0.00 0.00 67 1020.3
20260506140437 13 98 0.0 0.0 0.00 0.00 0.00 70 1020.5
20260506135934 12 99 0.0 0.0 0.00 0.00 0.00 72 1020.3
20260506135431 11 98 0.0 0.0 0.00 0.00 0.00 76 1020.2
20260506134927 10 99 0.0 0.0 0.00 0.00 0.00 78 1020.1
20260506134423 10 99 0.0 0.0 0.00 0.00 0.00 79 1020.3
20260506133920 10 99 0.0 0.0 0.00 0.00 0.00 78 1020.0
20260506133417 10 99 0.0 0.0 0.00 0.00 0.00 78 1020.0
20260506132914 10 99 0.0 0.0 0.00 0.00 0.00 78 1020.0
20260506132411 10 99 0.0 0.0 0.00 0.00 0.00 78 1019.6
20260506131909 10 99 0.0 0.0 0.00 0.00 0.00 78 1019.8
20260506131405 10 99 0.0 0.0 0.00 0.00 0.00 77 1020.1
20260506130902 10 99 0.0 0.0 0.00 0.00 0.00 77 1020.0
20260506130358 10 99 0.0 0.0 0.00 0.00 0.00 77 1020.1
20260506125857 10 99 0.0 0.0 0.00 0.00 0.00 77 1019.6
20260506125355 10 99 0.0 0.0 0.00 0.00 0.00 77 1019.5
20260506124853 10 99 0.0 0.0 0.00 0.00 0.00 77 1019.5
20260506124349 10 99 0.0 0.0 0.00 0.00 0.00 77 1019.6
20260506123847 10 99 0.0 0.0 0.00 0.00 0.00 77 1019.6
20260506123345 10 99 0.0 0.0 0.00 0.00 0.00 77 1019.5
20260506122842 10 99 0.0 0.0 0.00 0.00 0.00 76 1019.4
20260506122339 10 99 0.0 0.0 0.00 0.00 0.00 76 1019.4
20260506121837 10 99 0.0 0.0 0.00 0.00 0.00 76 1019.2
20260506121334 10 99 0.0 0.0 0.00 0.00 0.00 76 1019.4
20260506120831 10 99 0.0 0.0 0.00 0.00 0.00 76 1019.1
20260506120329 10 99 0.0 0.0 0.00 0.00 0.00 76 1019.2
20260506115826 10 99 0.0 0.0 0.00 0.00 0.00 76 1019.5
20260506115324 10 99 0.0 0.0 0.00 0.00 0.00 76 1019.2
20260506114822 10 100 0.0 0.0 0.00 0.00 0.00 76 1019.3
20260506114319 10 99 0.0 0.0 0.00 0.00 0.00 76 1019.2
20260506113818 10 99 0.0 0.0 0.00 0.00 0.00 76 1019.4
20260506113315 10 99 0.0 0.0 0.00 0.00 0.00 76 1019.1
20260506112811 10 99 0.0 0.0 0.00 0.00 0.00 76 1019.3
20260506112309 10 99 0.0 0.0 0.00 0.00 0.00 76 1019.0
20260506111806 10 99 0.0 0.0 0.00 0.00 0.00 76 1019.0
20260506111304 10 99 0.0 0.0 0.00 0.00 0.00 76 1019.1
20260506110801 10 99 0.0 0.0 0.00 0.00 0.00 75 1019.2
20260506110258 10 99 0.0 0.0 0.00 0.00 0.00 75 1019.1
20260506105754 10 99 0.0 0.0 0.00 0.00 0.00 75 1019.0
20260506105252 10 99 0.0 0.0 0.00 0.00 0.00 75 1018.9
20260506104749 10 98 0.0 0.0 0.00 0.00 0.00 74 1018.9
20260506104247 10 99 0.0 0.0 0.00 0.00 0.00 74 1019.4
20260506103744 11 99 0.0 0.0 0.00 0.00 0.00 72 1019.1
20260506103241 11 99 0.0 0.0 0.00 0.00 0.00 72 1018.9
20260506102739 11 99 0.0 0.0 0.00 0.00 0.00 72 1019.1
20260506102237 11 98 0.0 0.0 0.00 0.00 0.00 72 1019.0
20260506101733 11 99 0.0 0.0 0.00 0.00 0.00 71 1018.8
20260506101230 11 100 0.0 0.0 0.00 0.00 0.00 71 1019.1
20260506100728 11 100 0.0 0.0 0.00 0.00 0.00 71 1018.9
20260506100226 11 99 0.0 0.0 0.00 0.00 0.00 71 1019.1
20260506095724 11 99 0.0 0.0 0.00 0.00 0.00 71 1019.1
20260506095220 11 100 0.0 0.0 0.00 0.00 0.00 71 1019.1
20260506094717 11 100 0.0 0.0 0.00 0.00 0.00 71 1019.3
20260506094215 11 100 0.0 0.0 0.00 0.00 0.00 71 1019.3
20260506093714 12 100 0.0 0.0 0.00 0.00 0.00 71 1019.4
20260506093210 12 100 0.0 0.0 0.00 0.00 0.00 71 1019.4
20260506092708 12 100 0.0 0.0 0.00 0.00 0.00 71 1019.2
20260506092206 12 100 0.0 0.0 0.00 0.00 0.00 71 1019.0
20260506091703 11 99 0.0 0.0 0.00 0.00 0.00 71 1019.0
20260506091201 11 99 0.0 0.0 0.00 0.00 0.00 71 1018.9
20260506090658 12 99 0.0 0.0 0.00 0.00 0.00 71 1019.3
20260506090154 12 99 0.0 0.0 0.00 0.00 0.00 71 1019.2
20260506085652 12 99 0.0 0.0 0.00 0.00 0.00 70 1019.2
20260506085148 12 99 0.0 0.0 0.00 0.00 0.00 70 1019.5
20260506084645 11 99 0.0 0.0 0.00 0.00 0.00 70 1019.6
20260506084141 11 100 0.0 0.0 0.00 0.00 0.00 71 1019.6
20260506083638 11 98 0.0 0.0 0.00 0.00 0.00 71 1019.8
20260506083136 11 99 0.0 0.0 0.00 0.00 0.00 71 1019.9
20260506082632 11 98 0.0 0.0 0.00 0.00 0.00 71 1019.8
20260506082128 12 98 0.0 0.0 0.00 0.00 0.00 71 1019.5
20260506081626 12 98 0.0 0.0 0.00 0.00 0.00 70 1019.8
20260506081124 12 98 0.0 0.0 0.00 0.00 0.00 70 1019.5
20260506080622 12 98 0.0 0.0 0.00 0.00 0.00 70 1019.6
20260506080118 12 98 0.0 0.0 0.00 0.00 0.00 71 1019.8
20260506073102 12 98 0.0 0.0 0.00 0.00 0.00 70 1019.8
20260506072558 12 98 0.0 0.0 0.00 0.00 0.00 70 1019.5
20260506072056 12 98 0.0 0.0 0.00 0.00 0.00 69 1019.6
20260506071554 13 98 0.0 0.0 0.00 0.00 0.00 67 1019.5
20260506071051 13 97 0.0 0.0 0.00 0.00 0.00 66 1019.3
20260506070548 13 94 0.0 0.0 0.00 0.00 0.00 66 1019.2
20260506062022 12 98 0.0 0.0 0.00 0.00 0.00 70 1019.0
20260506061518 12 98 0.0 0.0 0.00 0.00 0.00 69 1018.8
20260506061016 13 98 0.0 0.0 0.00 0.00 0.00 69 1018.9
20260506060514 13 98 0.0 0.0 0.00 0.00 0.00 68 1018.9
20260506050943 13 98 0.0 0.0 0.00 0.00 0.00 66 1018.6
20260506050441 13 98 0.0 0.0 0.00 0.00 0.00 65 1018.6
20260506044931 14 95 0.0 0.0 0.00 0.00 0.00 64 1018.4
20260506044430 15 93 1.6 3.2 0.00 0.00 0.00 63 1018.1
20260506043926 15 85 1.6 3.2 0.00 0.00 0.00 63 1018.0
20260506043423 14 80 1.6 1.6 0.00 0.00 0.00 63 1017.8
20260506042921 14 104 0.0 0.0 0.00 0.00 0.00 63 1018.1
20260506042420 14 107 0.0 0.0 0.00 0.00 0.00 64 1017.8
20260506041918 14 106 0.0 0.0 0.00 0.00 0.00 64 1017.6
20260506041415 14 108 0.0 0.0 0.00 0.00 0.00 62 1017.5
20260506040912 15 108 0.0 0.0 0.00 0.00 0.00 62 1017.7
20260506040410 15 108 0.0 1.6 0.00 0.00 0.00 62 1017.7
20260506035905 15 150 0.0 0.0 0.00 0.00 0.00 62 1017.6
20260506035403 15 156 0.0 0.0 0.00 0.00 0.00 63 1017.6
20260506034900 15 151 0.0 0.0 0.00 0.00 0.00 63 1017.4
20260506034358 15 151 0.0 0.0 0.00 0.00 0.00 63 1017.5
20260506033854 15 157 0.0 0.0 0.00 0.00 0.00 64 1017.4
20260506033351 15 157 0.0 0.0 0.00 0.00 0.00 63 1017.4
20260506032848 15 157 0.0 0.0 0.00 0.00 0.00 63 1017.4
20260506032345 15 157 0.0 0.0 0.00 0.00 0.00 63 1017.4
20260506031842 15 158 0.0 0.0 0.00 0.00 0.00 62 1017.0
20260506031339 15 158 0.0 0.0 0.00 0.00 0.00 61 1017.2
20260506030837 15 158 0.0 0.0 0.00 0.00 0.00 60 1017.0
20260506030335 16 158 0.0 0.0 0.00 0.00 0.00 59 1017.0
20260506025831 16 158 0.0 0.0 0.00 0.00 0.00 57 1016.8
20260506025327 16 158 0.0 0.0 0.00 0.00 0.00 56 1016.7
20260506024825 16 157 0.0 0.0 0.00 0.00 0.00 55 1016.5
20260506024321 16 151 0.0 0.0 0.00 0.00 0.00 55 1016.5